| time (UTC) | temp F | wind direction | speed MPH | gust MPH | rain 1hr in | rain 24hr in | rain mn in | humidity % | barometer mb |
| 20260901085604 | 76 | 32 | 0.0 | 1.0 | 0.00 | 0.00 | 0.00 | 72 | 1017.4 |
| 20260901085104 | 76 | 30 | 0.0 | 1.0 | 0.00 | 0.00 | 0.00 | 71 | 1017.4 |
| 20260901084603 | 76 | 42 | 0.0 | 1.0 | 0.00 | 0.00 | 0.00 | 72 | 1017.4 |
| 20260901084104 | 76 | 40 | 0.0 | 1.0 | 0.00 | 0.00 | 0.00 | 71 | 1017.4 |
| 20260901083605 | 76 | 41 | 0.0 | 2.0 | 0.00 | 0.00 | 0.00 | 71 | 1017.3 |
| 20260901082545 | 76 | 30 | 0.0 | 1.0 | 0.00 | 0.00 | 0.00 | 71 | 1017.3 |
| 20260901081540 | 76 | 29 | 0.0 | 1.0 | 0.00 | 0.00 | 0.00 | 70 | 1017.2 |
| 20260901081037 | 76 | 30 | 0.0 | 1.0 | 0.00 | 0.00 | 0.00 | 70 | 1017.2 |
| 20260901080536 | 76 | 30 | 0.0 | 1.0 | 0.00 | 0.00 | 0.00 | 70 | 1017.1 |
| 20260901080035 | 76 | 30 | 0.0 | 1.0 | 0.00 | 0.00 | 0.00 | 70 | 1017.1 |
| 20260901075535 | 76 | 29 | 0.0 | 1.0 | 0.00 | 0.00 | 0.00 | 70 | 1017.2 |
| 20260901075035 | 76 | 29 | 0.0 | 1.0 | 0.00 | 0.00 | 0.00 | 70 | 1017.2 |
| 20260901074535 | 76 | 30 | 0.0 | 2.0 | 0.00 | 0.00 | 0.00 | 69 | 1017.2 |
| 20260901074033 | 76 | 28 | 0.0 | 2.0 | 0.00 | 0.00 | 0.00 | 69 | 1017.2 |
| 20260901073534 | 76 | 29 | 0.0 | 1.0 | 0.00 | 0.00 | 0.00 | 69 | 1017.3 |
| 20260901073036 | 76 | 28 | 0.0 | 0.0 | 0.00 | 0.00 | 0.00 | 68 | 1017.4 |
| 20260901072531 | 77 | 28 | 0.0 | 0.0 | 0.00 | 0.00 | 0.00 | 67 | 1017.4 |
| 20260901071531 | 77 | 28 | 0.0 | 0.0 | 0.00 | 0.00 | 0.00 | 67 | 1017.2 |
| 20260901071031 | 77 | 28 | 0.0 | 1.0 | 0.00 | 0.00 | 0.00 | 66 | 1017.2 |
| 20260901070031 | 78 | 26 | 0.0 | 1.0 | 0.00 | 0.00 | 0.00 | 65 | 1017.2 |
| 20260901064531 | 78 | 27 | 0.0 | 1.0 | 0.00 | 0.00 | 0.00 | 63 | 1017.2 |
| 20260901064030 | 79 | 26 | 0.0 | 1.0 | 0.00 | 0.00 | 0.00 | 62 | 1017.2 |
| 20260901063031 | 79 | 26 | 0.0 | 4.0 | 0.00 | 0.00 | 0.00 | 62 | 1017.3 |
| 20260901062531 | 79 | 26 | 0.0 | 4.0 | 0.00 | 0.00 | 0.00 | 61 | 1017.4 |
| 20260901061032 | 80 | 29 | 1.0 | 3.0 | 0.00 | 0.00 | 0.00 | 60 | 1017.4 |
| 20260901060533 | 80 | 22 | 0.0 | 2.0 | 0.00 | 0.00 | 0.00 | 60 | 1017.3 |
| 20260901060032 | 80 | 21 | 0.0 | 3.0 | 0.00 | 0.00 | 0.00 | 60 | 1017.3 |
| 20260901055532 | 80 | 24 | 1.0 | 3.0 | 0.00 | 0.00 | 0.00 | 60 | 1017.4 |
| 20260901054532 | 79 | 44 | 1.0 | 3.0 | 0.00 | 0.00 | 0.00 | 60 | 1017.2 |
| 20260901054033 | 79 | 25 | 1.0 | 3.0 | 0.00 | 0.00 | 0.00 | 60 | 1017.2 |
| 20260901053532 | 79 | 19 | 1.0 | 4.0 | 0.00 | 0.00 | 0.00 | 60 | 1017.2 |
| 20260901053033 | 79 | 24 | 1.0 | 4.0 | 0.00 | 0.00 | 0.00 | 59 | 1017.2 |
| 20260901052531 | 79 | 22 | 1.0 | 3.0 | 0.00 | 0.00 | 0.00 | 59 | 1017.1 |
| 20260901052031 | 80 | 24 | 1.0 | 3.0 | 0.00 | 0.00 | 0.00 | 59 | 1017.1 |
| 20260901051031 | 80 | 31 | 0.0 | 2.0 | 0.00 | 0.00 | 0.00 | 58 | 1017.0 |
| 20260901050031 | 80 | 22 | 0.0 | 3.0 | 0.00 | 0.00 | 0.00 | 57 | 1016.9 |
| 20260901045531 | 80 | 24 | 0.0 | 3.0 | 0.00 | 0.00 | 0.00 | 57 | 1016.9 |
| 20260901045030 | 80 | 22 | 0.0 | 3.0 | 0.00 | 0.00 | 0.00 | 56 | 1017.0 |
| 20260901044531 | 81 | 20 | 0.0 | 1.0 | 0.00 | 0.00 | 0.00 | 56 | 1017.0 |
| 20260901044030 | 81 | 20 | 0.0 | 3.0 | 0.00 | 0.00 | 0.00 | 55 | 1017.0 |
| 20260901043520 | 81 | 18 | 0.0 | 3.0 | 0.00 | 0.00 | 0.00 | 55 | 1016.9 |
| 20260901043014 | 81 | 18 | 0.0 | 2.0 | 0.00 | 0.00 | 0.00 | 54 | 1016.9 |
| 20260901042503 | 82 | 20 | 0.0 | 1.0 | 0.00 | 0.00 | 0.00 | 54 | 1017.0 |
| 20260901041503 | 82 | 19 | 0.0 | 1.0 | 0.00 | 0.00 | 0.00 | 53 | 1016.9 |
| 20260901041004 | 83 | 20 | 0.0 | 2.0 | 0.00 | 0.00 | 0.00 | 52 | 1016.9 |
| 20260901040503 | 83 | 21 | 1.0 | 2.0 | 0.00 | 0.00 | 0.00 | 52 | 1017.0 |
| 20260901035503 | 83 | 17 | 1.0 | 3.0 | 0.00 | 0.00 | 0.00 | 51 | 1016.9 |
| 20260901035004 | 84 | 16 | 1.0 | 3.0 | 0.00 | 0.00 | 0.00 | 50 | 1016.9 |
| 20260901034503 | 84 | 17 | 1.0 | 2.0 | 0.00 | 0.00 | 0.00 | 49 | 1016.9 |
| 20260901034004 | 85 | 15 | 0.0 | 2.0 | 0.00 | 0.00 | 0.00 | 49 | 1016.9 |
| 20260901033504 | 85 | 17 | 0.0 | 3.0 | 0.00 | 0.00 | 0.00 | 49 | 1017.0 |
| 20260901033004 | 85 | 18 | 1.0 | 3.0 | 0.00 | 0.00 | 0.00 | 48 | 1016.9 |
| 20260901032504 | 85 | 19 | 1.0 | 3.0 | 0.00 | 0.00 | 0.00 | 48 | 1016.9 |
| 20260901032004 | 85 | 17 | 1.0 | 6.0 | 0.00 | 0.00 | 0.00 | 48 | 1016.8 |
| 20260901031454 | 85 | 17 | 2.0 | 6.0 | 0.00 | 0.00 | 0.00 | 47 | 1016.8 |
| 20260901030948 | 86 | 20 | 1.0 | 5.0 | 0.00 | 0.00 | 0.00 | 47 | 1016.8 |
| 20260901030442 | 86 | 19 | 1.0 | 5.0 | 0.00 | 0.00 | 0.00 | 48 | 1016.8 |
| 20260901025936 | 86 | 18 | 1.0 | 4.0 | 0.00 | 0.00 | 0.00 | 48 | 1016.7 |
| 20260901024932 | 86 | 11 | 1.0 | 5.0 | 0.00 | 0.00 | 0.00 | 48 | 1016.6 |
| 20260901024431 | 86 | 20 | 1.0 | 5.0 | 0.00 | 0.00 | 0.00 | 47 | 1016.5 |
| 20260901023931 | 86 | 26 | 1.0 | 4.0 | 0.00 | 0.00 | 0.00 | 47 | 1016.5 |
| 20260901023433 | 86 | 22 | 1.0 | 3.0 | 0.00 | 0.00 | 0.00 | 47 | 1016.3 |
| 20260901022931 | 87 | 15 | 1.0 | 4.0 | 0.00 | 0.00 | 0.00 | 47 | 1016.2 |
| 20260901022432 | 87 | 19 | 1.0 | 4.0 | 0.00 | 0.00 | 0.00 | 47 | 1016.2 |
| 20260901021931 | 87 | 20 | 1.0 | 4.0 | 0.00 | 0.00 | 0.00 | 47 | 1016.2 |
| 20260901021432 | 87 | 20 | 1.0 | 4.0 | 0.00 | 0.00 | 0.00 | 46 | 1016.1 |
| 20260901020930 | 87 | 17 | 0.0 | 2.0 | 0.00 | 0.00 | 0.00 | 46 | 1016.1 |
| 20260901015930 | 88 | 181 | 1.0 | 5.0 | 0.00 | 0.00 | 0.00 | 45 | 1015.9 |
| 20260901015431 | 88 | 153 | 1.0 | 4.0 | 0.00 | 0.00 | 0.00 | 44 | 1015.9 |
| 20260901014931 | 88 | 77 | 1.0 | 3.0 | 0.00 | 0.00 | 0.00 | 44 | 1015.8 |
| 20260901014432 | 88 | 117 | 1.0 | 3.0 | 0.00 | 0.00 | 0.00 | 44 | 1015.8 |
| 20260901013931 | 88 | 124 | 1.0 | 4.0 | 0.00 | 0.00 | 0.00 | 44 | 1015.7 |
| 20260901013431 | 89 | 190 | 1.0 | 5.0 | 0.00 | 0.00 | 0.00 | 43 | 1015.6 |
| 20260901012431 | 89 | 203 | 0.0 | 2.0 | 0.00 | 0.00 | 0.00 | 42 | 1015.6 |
| 20260901011931 | 89 | 318 | 0.0 | 2.0 | 0.00 | 0.00 | 0.00 | 42 | 1015.5 |
| 20260901011430 | 89 | 96 | 0.0 | 2.0 | 0.00 | 0.00 | 0.00 | 41 | 1015.4 |
| 20260901010930 | 90 | 92 | 0.0 | 1.0 | 0.00 | 0.00 | 0.00 | 41 | 1015.4 |
| 20260901010431 | 91 | 92 | 0.0 | 1.0 | 0.00 | 0.00 | 0.00 | 41 | 1015.3 |
| 20260901005930 | 91 | 92 | 0.0 | 4.0 | 0.00 | 0.00 | 0.00 | 39 | 1015.3 |
| 20260901004931 | 92 | 114 | 0.0 | 1.0 | 0.00 | 0.00 | 0.00 | 39 | 1015.2 |
| 20260901004431 | 92 | 114 | 0.0 | 3.0 | 0.00 | 0.00 | 0.00 | 38 | 1015.2 |
| 20260901003930 | 92 | 114 | 0.0 | 3.0 | 0.00 | 0.00 | 0.00 | 36 | 1015.1 |
| 20260901003431 | 92 | 113 | 0.0 | 3.0 | 0.00 | 0.00 | 0.00 | 36 | 1015.0 |
| 20260901002431 | 93 | 139 | 1.0 | 2.0 | 0.00 | 0.00 | 0.00 | 34 | 1015.0 |
| 20260901001930 | 93 | 198 | 0.0 | 2.0 | 0.00 | 0.00 | 0.00 | 34 | 1014.9 |
| 20260901000930 | 94 | 221 | 0.0 | 2.0 | 0.00 | 0.00 | 0.00 | 33 | 1015.0 |
| 20260901000431 | 94 | 171 | 0.0 | 2.0 | 0.00 | 0.00 | 0.00 | 33 | 1015.0 |
| 20260831235930 | 95 | 169 | 0.0 | 2.0 | 0.00 | 0.00 | 0.00 | 32 | 1014.9 |
| 20260831235431 | 95 | 82 | 1.0 | 3.0 | 0.00 | 0.00 | 0.00 | 33 | 1014.9 |
| 20260831234931 | 95 | 85 | 1.0 | 3.0 | 0.00 | 0.00 | 0.00 | 32 | 1015.0 |
| 20260831234431 | 95 | 240 | 1.0 | 2.0 | 0.00 | 0.00 | 0.00 | 32 | 1015.0 |
| 20260831233931 | 96 | 223 | 1.0 | 2.0 | 0.00 | 0.00 | 0.00 | 31 | 1015.0 |
| 20260831233431 | 96 | 142 | 1.0 | 3.0 | 0.00 | 0.00 | 0.00 | 32 | 1014.9 |
| 20260831232931 | 97 | 202 | 1.0 | 4.0 | 0.00 | 0.00 | 0.00 | 32 | 1015.0 |
| 20260831232431 | 97 | 196 | 1.0 | 4.0 | 0.00 | 0.00 | 0.00 | 32 | 1015.0 |
| 20260831231931 | 97 | 221 | 1.0 | 3.0 | 0.00 | 0.00 | 0.00 | 32 | 1015.0 |
| 20260831231431 | 98 | 208 | 1.0 | 3.0 | 0.00 | 0.00 | 0.00 | 31 | 1015.0 |
| 20260831230931 | 98 | 203 | 1.0 | 4.0 | 0.00 | 0.00 | 0.00 | 30 | 1015.1 |
| 20260831230432 | 98 | 178 | 2.0 | 5.0 | 0.00 | 0.00 | 0.00 | 31 | 1015.0 |
| 20260831225931 | 99 | 221 | 2.0 | 5.0 | 0.00 | 0.00 | 0.00 | 31 | 1015.0 |
| 20260831225431 | 99 | 245 | 2.0 | 5.0 | 0.00 | 0.00 | 0.00 | 30 | 1015.1 |
| 20260831224431 | 100 | 221 | 2.0 | 5.0 | 0.00 | 0.00 | 0.00 | 30 | 1015.1 |
| 20260831223931 | 100 | 144 | 2.0 | 5.0 | 0.00 | 0.00 | 0.00 | 30 | 1015.1 |
| 20260831223431 | 100 | 297 | 2.0 | 5.0 | 0.00 | 0.00 | 0.00 | 30 | 1015.0 |
| 20260831222931 | 101 | 84 | 2.0 | 4.0 | 0.00 | 0.00 | 0.00 | 29 | 1015.0 |
| 20260831222432 | 101 | 150 | 2.0 | 4.0 | 0.00 | 0.00 | 0.00 | 29 | 1015.2 |
| 20260831221930 | 101 | 277 | 2.0 | 7.0 | 0.00 | 0.00 | 0.00 | 29 | 1015.3 |
| 20260831221431 | 101 | 232 | 2.0 | 7.0 | 0.00 | 0.00 | 0.00 | 29 | 1015.2 |
| 20260831220931 | 101 | 225 | 2.0 | 5.0 | 0.00 | 0.00 | 0.00 | 29 | 1015.2 |
| 20260831220431 | 101 | 260 | 2.0 | 5.0 | 0.00 | 0.00 | 0.00 | 29 | 1015.2 |
| 20260831215931 | 102 | 180 | 1.0 | 4.0 | 0.00 | 0.00 | 0.00 | 29 | 1015.3 |
| 20260831215432 | 102 | 186 | 1.0 | 5.0 | 0.00 | 0.00 | 0.00 | 29 | 1015.3 |
| 20260831214930 | 102 | 255 | 2.0 | 5.0 | 0.00 | 0.00 | 0.00 | 29 | 1015.3 |
| 20260831214431 | 102 | 225 | 3.0 | 6.0 | 0.00 | 0.00 | 0.00 | 28 | 1015.4 |
| 20260831213930 | 103 | 103 | 3.0 | 7.0 | 0.00 | 0.00 | 0.00 | 28 | 1015.5 |
| 20260831213431 | 103 | 194 | 2.0 | 7.0 | 0.00 | 0.00 | 0.00 | 28 | 1015.4 |
| 20260831212431 | 103 | 300 | 3.0 | 5.0 | 0.00 | 0.00 | 0.00 | 29 | 1015.4 |
| 20260831211931 | 102 | 84 | 2.0 | 6.0 | 0.00 | 0.00 | 0.00 | 29 | 1015.4 |
| 20260831211430 | 102 | 29 | 2.0 | 6.0 | 0.00 | 0.00 | 0.00 | 29 | 1015.5 |
| 20260831210931 | 102 | 109 | 2.0 | 6.0 | 0.00 | 0.00 | 0.00 | 30 | 1015.6 |
| 20260831205931 | 103 | 262 | 2.0 | 5.0 | 0.00 | 0.00 | 0.00 | 29 | 1015.5 |
| 20260831205430 | 103 | 67 | 3.0 | 7.0 | 0.00 | 0.00 | 0.00 | 28 | 1015.6 |
| 20260831204930 | 103 | 175 | 3.0 | 7.0 | 0.00 | 0.00 | 0.00 | 28 | 1015.7 |
| 20260831204424 | 103 | 259 | 3.0 | 7.0 | 0.00 | 0.00 | 0.00 | 28 | 1015.8 |
| 20260831203415 | 102 | 181 | 2.0 | 8.0 | 0.00 | 0.00 | 0.00 | 29 | 1015.8 |
| 20260831202909 | 102 | 159 | 2.0 | 5.0 | 0.00 | 0.00 | 0.00 | 30 | 1015.9 |
| 20260831201903 | 101 | 333 | 2.0 | 5.0 | 0.00 | 0.00 | 0.00 | 30 | 1016.0 |
| 20260831201403 | 102 | 293 | 1.0 | 4.0 | 0.00 | 0.00 | 0.00 | 30 | 1016.1 |
| 20260831200902 | 101 | 244 | 1.0 | 4.0 | 0.00 | 0.00 | 0.00 | 32 | 1016.2 |
| 20260831200403 | 102 | 213 | 2.0 | 6.0 | 0.00 | 0.00 | 0.00 | 31 | 1016.2 |
| 20260831195903 | 102 | 180 | 3.0 | 8.0 | 0.00 | 0.00 | 0.00 | 29 | 1016.5 |
| 20260831194903 | 103 | 308 | 2.0 | 9.0 | 0.00 | 0.00 | 0.00 | 29 | 1016.3 |
| 20260831194403 | 103 | 205 | 3.0 | 10.0 | 0.00 | 0.00 | 0.00 | 30 | 1016.5 |
| 20260831193905 | 103 | 188 | 3.0 | 10.0 | 0.00 | 0.00 | 0.00 | 30 | 1016.5 |
| 20260831192904 | 102 | 186 | 2.0 | 6.0 | 0.00 | 0.00 | 0.00 | 30 | 1016.6 |
| 20260831192404 | 102 | 209 | 1.0 | 4.0 | 0.00 | 0.00 | 0.00 | 29 | 1016.7 |
| 20260831191903 | 102 | 105 | 2.0 | 9.0 | 0.00 | 0.00 | 0.00 | 29 | 1016.8 |
| 20260831191402 | 102 | 142 | 2.0 | 9.0 | 0.00 | 0.00 | 0.00 | 28 | 1016.9 |
| 20260831190903 | 102 | 199 | 3.0 | 6.0 | 0.00 | 0.00 | 0.00 | 28 | 1016.9 |
| 20260831190403 | 103 | 217 | 3.0 | 6.0 | 0.00 | 0.00 | 0.00 | 28 | 1017.0 |
| 20260831185903 | 102 | 249 | 3.0 | 6.0 | 0.00 | 0.00 | 0.00 | 31 | 1017.0 |
| 20260831184402 | 102 | 0 | 2.0 | 5.0 | 0.00 | 0.00 | 0.00 | 30 | 1017.2 |
| 20260831183903 | 101 | 318 | 2.0 | 5.0 | 0.00 | 0.00 | 0.00 | 32 | 1017.3 |
| 20260831183402 | 101 | 271 | 2.0 | 6.0 | 0.00 | 0.00 | 0.00 | 32 | 1017.3 |
| 20260831182903 | 101 | 320 | 2.0 | 6.0 | 0.00 | 0.00 | 0.00 | 31 | 1017.4 |
| 20260831181904 | 101 | 239 | 3.0 | 7.0 | 0.00 | 0.00 | 0.00 | 31 | 1017.6 |
| 20260831181403 | 101 | 280 | 3.0 | 8.0 | 0.00 | 0.00 | 0.00 | 32 | 1017.6 |
| 20260831180905 | 102 | 242 | 3.0 | 10.0 | 0.00 | 0.00 | 0.00 | 30 | 1017.7 |
| 20260831180404 | 102 | 235 | 2.0 | 10.0 | 0.00 | 0.00 | 0.00 | 31 | 1017.8 |
| 20260831175905 | 101 | 202 | 2.0 | 5.0 | 0.00 | 0.00 | 0.00 | 33 | 1017.8 |
| 20260831175402 | 101 | 234 | 2.0 | 5.0 | 0.00 | 0.00 | 0.00 | 33 | 1017.8 |
| 20260831174903 | 101 | 13 | 3.0 | 8.0 | 0.00 | 0.00 | 0.00 | 33 | 1017.9 |
| 20260831173903 | 100 | 297 | 2.0 | 9.0 | 0.00 | 0.00 | 0.00 | 35 | 1018.0 |
| 20260831173402 | 99 | 142 | 3.0 | 9.0 | 0.00 | 0.00 | 0.00 | 34 | 1018.1 |
| 20260831172903 | 99 | 205 | 3.0 | 6.0 | 0.00 | 0.00 | 0.00 | 36 | 1018.1 |
| 20260831172402 | 99 | 174 | 3.0 | 8.0 | 0.00 | 0.00 | 0.00 | 37 | 1018.2 |
| 20260831171903 | 98 | 215 | 2.0 | 8.0 | 0.00 | 0.00 | 0.00 | 36 | 1018.3 |
| 20260831171402 | 98 | 224 | 2.0 | 6.0 | 0.00 | 0.00 | 0.00 | 38 | 1018.3 |
| 20260831170903 | 98 | 304 | 3.0 | 6.0 | 0.00 | 0.00 | 0.00 | 37 | 1018.4 |
| 20260831170403 | 98 | 214 | 3.0 | 7.0 | 0.00 | 0.00 | 0.00 | 38 | 1018.4 |
| 20260831165857 | 98 | 185 | 3.0 | 7.0 | 0.00 | 0.00 | 0.00 | 37 | 1018.6 |
| 20260831165358 | 98 | 340 | 2.0 | 7.0 | 0.00 | 0.00 | 0.00 | 39 | 1018.6 |
| 20260831164857 | 97 | 234 | 2.0 | 6.0 | 0.00 | 0.00 | 0.00 | 40 | 1018.6 |
| 20260831164358 | 97 | 24 | 3.0 | 6.0 | 0.00 | 0.00 | 0.00 | 41 | 1018.6 |
| 20260831163858 | 97 | 83 | 2.0 | 0.0 | 0.00 | 0.00 | 0.00 | 40 | 1018.6 |
| 20260831162001 | 0 | 0.0 | 0.0 | 0.00 | 0.00 | 0.00 | |||
| 20260831161432 | 0 | 0.0 | 0.0 | 0.00 | 0.00 | 0.00 | |||
| 20260831160929 | 0 | 0.0 | 0.0 | 0.00 | 0.00 | 0.00 | |||
| 20260831160504 | 0 | 0.0 | 0.0 | 0.00 | 0.00 | 0.00 | |||
| 20260831154902 | 0 | 0.0 | 0.0 | 0.00 | 0.00 | 0.00 | |||
| 20260831154404 | 0 | 0.0 | 0.0 | 0.00 | 0.00 | 0.00 | |||
| 20260831153829 | 0 | 0.0 | 0.0 | 0.00 | 0.00 | 0.00 | |||
| 20260831153305 | 0 | 0.0 | 0.0 | 0.00 | 0.00 | 0.00 | |||
| 20260831152801 | 0 | 0.0 | 0.0 | 0.00 | 0.00 | 0.00 | |||
| 20260831152232 | 0 | 0.0 | 0.0 | 0.00 | 0.00 | 0.00 | |||
| 20260831151728 | 0 | 0.0 | 0.0 | 0.00 | 0.00 | 0.00 | |||
| 20260831151204 | 0 | 0.0 | 0.0 | 0.00 | 0.00 | 0.00 | |||
| 20260831150700 | 0 | 0.0 | 0.0 | 0.00 | 0.00 | 0.00 | |||
| 20260831150133 | 0 | 0.0 | 0.0 | 0.00 | 0.00 | 0.00 | |||
| 20260831145629 | 0 | 0.0 | 0.0 | 0.00 | 0.00 | 0.00 | |||
| 20260831145104 | 0 | 0.0 | 0.0 | 0.00 | 0.00 | 0.00 | |||
| 20260831144601 | 0 | 0.0 | 0.0 | 0.00 | 0.00 | 0.00 | |||
| 20260831144033 | 0 | 0.0 | 0.0 | 0.00 | 0.00 | 0.00 | |||
| 20260831143528 | 0 | 0.0 | 0.0 | 0.00 | 0.00 | 0.00 | |||
| 20260831143002 | 0 | 0.0 | 0.0 | 0.00 | 0.00 | 0.00 | |||
| 20260831142501 | 0 | 0.0 | 0.0 | 0.00 | 0.00 | 0.00 | |||
| 20260831141930 | 0 | 0.0 | 0.0 | 0.00 | 0.00 | 0.00 | |||
| 20260831141429 | 0 | 0.0 | 0.0 | 0.00 | 0.00 | 0.00 | |||
| 20260831140904 | 0 | 0.0 | 0.0 | 0.00 | 0.00 | 0.00 | |||
| 20260831140402 | 0 | 0.0 | 0.0 | 0.00 | 0.00 | 0.00 | |||
| 20260831134929 | 0 | 0.0 | 0.0 | 0.00 | 0.00 | 0.00 | |||
| 20260831134404 | 0 | 0.0 | 0.0 | 0.00 | 0.00 | 0.00 | |||
| 20260831133901 | 0 | 0.0 | 0.0 | 0.00 | 0.00 | 0.00 | |||
| 20260831133330 | 0 | 0.0 | 0.0 | 0.00 | 0.00 | 0.00 | |||
| 20260831132829 | 0 | 0.0 | 0.0 | 0.00 | 0.00 | 0.00 | |||
| 20260831132306 | 0 | 0.0 | 0.0 | 0.00 | 0.00 | 0.00 | |||
| 20260831131801 | 0 | 0.0 | 0.0 | 0.00 | 0.00 | 0.00 | |||
| 20260831131230 | 0 | 0.0 | 0.0 | 0.00 | 0.00 | 0.00 | |||
| 20260831130729 | 0 | 0.0 | 0.0 | 0.00 | 0.00 | 0.00 | |||
| 20260831130203 | 0 | 0.0 | 0.0 | 0.00 | 0.00 | 0.00 | |||
| 20260831125701 | 0 | 0.0 | 0.0 | 0.00 | 0.00 | 0.00 | |||
| 20260831125132 | 0 | 0.0 | 0.0 | 0.00 | 0.00 | 0.00 | |||
| 20260831124629 | 0 | 0.0 | 0.0 | 0.00 | 0.00 | 0.00 | |||
| 20260831124202 | 71 | 0.0 | 0.0 | 0.00 | 0.00 | 0.00 | 79 | 1017.8 | |
| 20260831120511 | 71 | 88 | 0.0 | 1.0 | 0.00 | 0.00 | 0.00 | 77 | 1017.4 |
| 20260831120009 | 71 | 88 | 0.0 | 1.0 | 0.00 | 0.00 | 0.00 | 77 | 1017.3 |
| 20260831115508 | 71 | 88 | 0.0 | 1.0 | 0.00 | 0.00 | 0.00 | 77 | 1017.2 |
| 20260831115006 | 71 | 88 | 0.0 | 0.0 | 0.00 | 0.00 | 0.00 | 77 | 1017.2 |
| 20260831114503 | 71 | 88 | 0.0 | 0.0 | 0.00 | 0.00 | 0.00 | 77 | 1017.2 |
| 20260831114004 | 71 | 88 | 0.0 | 0.0 | 0.00 | 0.00 | 0.00 | 77 | 1017.0 |
| 20260831112503 | 71 | 88 | 0.0 | 1.0 | 0.00 | 0.00 | 0.00 | 75 | 1016.9 |
| 20260831112003 | 72 | 88 | 0.0 | 1.0 | 0.00 | 0.00 | 0.00 | 75 | 1016.8 |
| 20260831111504 | 72 | 88 | 0.0 | 1.0 | 0.00 | 0.00 | 0.00 | 75 | 1016.8 |
| 20260831111003 | 72 | 88 | 0.0 | 1.0 | 0.00 | 0.00 | 0.00 | 75 | 1016.8 |
| 20260831110503 | 72 | 88 | 0.0 | 1.0 | 0.00 | 0.00 | 0.00 | 75 | 1016.7 |
| 20260831110003 | 72 | 88 | 0.0 | 1.0 | 0.00 | 0.00 | 0.00 | 74 | 1016.7 |
| 20260831105502 | 72 | 88 | 0.0 | 0.0 | 0.00 | 0.00 | 0.00 | 74 | 1016.7 |
| 20260831104502 | 72 | 88 | 0.0 | 2.0 | 0.00 | 0.00 | 0.00 | 74 | 1016.7 |
| 20260831104002 | 72 | 96 | 0.0 | 1.0 | 0.00 | 0.00 | 0.00 | 74 | 1016.6 |
| 20260831103502 | 72 | 96 | 0.0 | 1.0 | 0.00 | 0.00 | 0.00 | 73 | 1016.6 |
| 20260831102502 | 72 | 96 | 0.0 | 0.0 | 0.00 | 0.00 | 0.00 | 73 | 1016.6 |
| 20260831102003 | 72 | 96 | 0.0 | 0.0 | 0.00 | 0.00 | 0.00 | 72 | 1016.6 |
| 20260831101503 | 72 | 96 | 0.0 | 0.0 | 0.00 | 0.00 | 0.00 | 72 | 1016.6 |
| 20260831101002 | 72 | 96 | 0.0 | 0.0 | 0.00 | 0.00 | 0.00 | 72 | 1016.6 |
| 20260831100503 | 72 | 96 | 0.0 | 0.0 | 0.00 | 0.00 | 0.00 | 71 | 1016.6 |
| 20260831100002 | 73 | 96 | 0.0 | 0.0 | 0.00 | 0.00 | 0.00 | 71 | 1016.6 |
| 20260831095504 | 73 | 96 | 0.0 | 0.0 | 0.00 | 0.00 | 0.00 | 71 | 1016.6 |
| 20260831095003 | 73 | 96 | 0.0 | 0.0 | 0.00 | 0.00 | 0.00 | 70 | 1016.6 |
| 20260831094504 | 73 | 96 | 0.0 | 0.0 | 0.00 | 0.00 | 0.00 | 70 | 1016.6 |
| 20260831094005 | 73 | 96 | 0.0 | 0.0 | 0.00 | 0.00 | 0.00 | 70 | 1016.6 |
| 20260831093504 | 73 | 96 | 0.0 | 1.0 | 0.00 | 0.00 | 0.00 | 70 | 1016.5 |
| 20260831093003 | 73 | 96 | 0.0 | 1.0 | 0.00 | 0.00 | 0.00 | 69 | 1016.3 |
| 20260831092508 | 73 | 96 | 0.0 | 1.0 | 0.00 | 0.00 | 0.00 | 69 | 1016.2 |
| 20260831091504 | 74 | 96 | 0.0 | 1.0 | 0.00 | 0.00 | 0.00 | 68 | 1016.3 |
| 20260831091005 | 74 | 96 | 0.0 | 0.0 | 0.00 | 0.00 | 0.00 | 67 | 1016.5 |
| 20260831090504 | 74 | 96 | 0.0 | 1.0 | 0.00 | 0.00 | 0.00 | 67 | 1016.3 |
| 20260831090004 | 74 | 96 | 0.0 | 2.0 | 0.00 | 0.00 | 0.00 | 67 | 1016.2 |